Location: Goettingen
(51.5300°N, 9.9433°E)
Time: 11:18:38
(UTC+02:00)

ISS - Pass Details

Date: 20 May 2019
Orbit: 407 x 410 km, 51.6° (Epoch: 21 May)

Event Time Altitude Azimuth Distance (km) Brightness Sun altitude
Rises 22:46:01 0° 241° (WSW) 2,327 0.1 -11.2°
Reaches altitude 10° 22:48:08 10° 237° (WSW) 1,469 -1.0 -11.4°
Maximum altitude 22:51:21 53° 159° (SSE) 507 -3.7 -11.7°
Drops below altitude 10° 22:54:35 10° 81° (E) 1,475 -1.2 -11.9°
Sets 22:56:42 0° 77° (ENE) 2,339 -0.2 -12.1°
